Station Historical Data
Daily Summary for April 17, 2012 Units:  English    Metric   Both
« Previous Day
Next Day »
Daily Weekly Monthly Yearly Custom
  High: Low: Average:
Temperature: 60.0 °F 51.9 °F 56.2 °F
Dew Point: 56.5 °F 50.5 °F 53.6 °F
Humidity: 95% 85% 91%
Wind Speed: 11.0mph 0.0mph 3.5mph
Wind Gust: 16.0mph - -
Wind- - SSE
Pressure: 30.26 in 30.13 in -
Precipitation: 0.38 in    
Historical Graphs
 
 
Tabular Data for April 17, 2012
Time Temperature Dew Point Pressure Wind Wind Speed Wind Gust Humidity Rainfall Rate (Hourly) Conditions
00:00 60.0 °F 56.4 °F 30.15 in NW 4.0 mph 4.0 mph 88% 0.00 in
00:05 59.9 °F 56.3 °F 30.15 in NW 4.0 mph 4.0 mph 88% 0.00 in
00:06 59.9 °F 56.3 °F 30.15 in NNW 2.0 mph 4.0 mph 88% 0.00 in
00:11 59.8 °F 56.2 °F 30.15 in NW 2.0 mph 3.0 mph 88% 0.00 in
00:16 59.7 °F 56.2 °F 30.15 in NNE 2.0 mph 3.0 mph 88% 0.00 in
00:21 59.7 °F 56.2 °F 30.15 in NNE 2.0 mph 3.0 mph 88% 0.00 in
00:26 59.7 °F 56.2 °F 30.15 in NNE 2.0 mph 3.0 mph 88% 0.00 in
00:31 59.7 °F 56.2 °F 30.15 in NE 1.0 mph 2.0 mph 88% 0.00 in
00:36 59.7 °F 56.2 °F 30.15 in ENE 2.0 mph 2.0 mph 88% 0.00 in
00:41 59.7 °F 56.5 °F 30.15 in East 1.0 mph 3.0 mph 89% 0.00 in
00:47 59.7 °F 56.2 °F 30.15 in ENE 1.0 mph 3.0 mph 88% 0.00 in
00:52 59.6 °F 56.0 °F 30.15 in NE 4.0 mph 4.0 mph 88% 0.00 in
00:57 59.7 °F 56.2 °F 30.15 in NE 3.0 mph 3.0 mph 88% 0.00 in
01:02 59.7 °F 56.2 °F 30.14 in NE 3.0 mph 3.0 mph 88% 0.00 in
01:07 59.6 °F 56.0 °F 30.14 in NNE 3.0 mph 4.0 mph 88% 0.00 in
01:12 59.6 °F 56.4 °F 30.14 in NNE 2.0 mph 5.0 mph 89% 0.00 in
01:17 59.5 °F 56.3 °F 30.14 in NNE 1.0 mph 3.0 mph 89% 0.00 in
01:23 59.4 °F 56.2 °F 30.15 in NNE 2.0 mph 4.0 mph 89% 0.00 in
01:28 59.3 °F 56.1 °F 30.15 in North 3.0 mph 3.0 mph 89% 0.00 in
01:33 59.2 °F 56.0 °F 30.14 in NNW 2.0 mph 5.0 mph 89% 0.00 in
01:38 59.2 °F 56.3 °F 30.14 in NW 2.0 mph 5.0 mph 90% 0.00 in
01:43 59.2 °F 56.3 °F 30.14 in NNW 1.0 mph 4.0 mph 90% 0.00 in
01:48 59.1 °F 56.2 °F 30.15 in NNW 4.0 mph 6.0 mph 90% 0.00 in
01:53 59.1 °F 56.2 °F 30.14 in NE 1.0 mph 4.0 mph 90% 0.00 in
01:58 59.0 °F 56.1 °F 30.14 in NNE 1.0 mph 4.0 mph 90% 0.00 in
02:03 58.9 °F 56.0 °F 30.14 in NNW 4.0 mph 4.0 mph 90% 0.00 in
02:08 58.9 °F 56.0 °F 30.15 in North 3.0 mph 3.0 mph 90% 0.00 in
02:13 58.9 °F 56.3 °F 30.15 in North 1.0 mph 2.0 mph 91% 0.00 in
02:18 58.8 °F 56.2 °F 30.15 in NNE 3.0 mph 3.0 mph 91% 0.00 in
02:23 58.8 °F 56.2 °F 30.15 in NNE 2.0 mph 3.0 mph 91% 0.00 in
02:28 58.7 °F 56.1 °F 30.15 in North 3.0 mph 4.0 mph 91% 0.00 in
02:33 58.6 °F 56.0 °F 30.14 in NE 2.0 mph 4.0 mph 91% 0.00 in
02:38 58.6 °F 56.0 °F 30.14 in NE 2.0 mph 4.0 mph 91% 0.00 in
02:43 58.7 °F 55.8 °F 30.14 in North 2.0 mph 4.0 mph 90% 0.00 in
02:48 58.7 °F 55.8 °F 30.14 in NNE 4.0 mph 4.0 mph 90% 0.00 in
02:53 58.7 °F 55.8 °F 30.14 in NE 3.0 mph 4.0 mph 90% 0.00 in
02:58 58.6 °F 55.7 °F 30.14 in NE 5.0 mph 5.0 mph 90% 0.00 in
03:03 58.6 °F 56.0 °F 30.13 in NE 4.0 mph 7.0 mph 91% 0.00 in
03:08 58.6 °F 56.0 °F 30.13 in NE 3.0 mph 6.0 mph 91% 0.00 in
03:13 58.5 °F 55.9 °F 30.13 in NE 4.0 mph 5.0 mph 91% 0.00 in
03:18 58.5 °F 55.9 °F 30.14 in North 3.0 mph 4.0 mph 91% 0.00 in
03:23 58.4 °F 55.8 °F 30.14 in NNW 4.0 mph 5.0 mph 91% 0.00 in
03:28 58.3 °F 55.7 °F 30.14 in NNW 3.0 mph 4.0 mph 91% 0.00 in
03:33 58.3 °F 55.7 °F 30.14 in North 2.0 mph 6.0 mph 91% 0.00 in
03:38 58.4 °F 55.8 °F 30.14 in NNE 4.0 mph 5.0 mph 91% 0.00 in
03:43 58.4 °F 55.8 °F 30.14 in NNW 2.0 mph 4.0 mph 91% 0.00 in
03:48 58.4 °F 55.8 °F 30.14 in NNE 2.0 mph 6.0 mph 91% 0.00 in
03:54 58.4 °F 55.5 °F 30.15 in NNE 3.0 mph 5.0 mph 90% 0.00 in
03:59 58.4 °F 55.5 °F 30.14 in NNE 2.0 mph 6.0 mph 90% 0.00 in
04:03 58.4 °F 55.5 °F 30.14 in NE 2.0 mph 3.0 mph 90% 0.00 in
04:08 58.3 °F 55.4 °F 30.14 in NNE 1.0 mph 3.0 mph 90% 0.00 in
04:14 58.2 °F 55.3 °F 30.14 in NW 1.0 mph 4.0 mph 90% 0.00 in
04:19 58.2 °F 55.3 °F 30.14 in North 2.0 mph 3.0 mph 90% 0.00 in
04:24 58.1 °F 55.2 °F 30.14 in North 5.0 mph 5.0 mph 90% 0.00 in
04:29 58.1 °F 55.2 °F 30.14 in North 2.0 mph 4.0 mph 90% 0.00 in
04:34 58.1 °F 55.2 °F 30.14 in North 1.0 mph 7.0 mph 90% 0.00 in
04:39 58.1 °F 55.2 °F 30.14 in NNW 1.0 mph 5.0 mph 90% 0.00 in
04:44 58.1 °F 55.2 °F 30.14 in NNE 4.0 mph 4.0 mph 90% 0.00 in
04:49 58.2 °F 55.0 °F 30.14 in NNW 2.0 mph 5.0 mph 89% 0.00 in
04:54 58.2 °F 55.0 °F 30.14 in North 2.0 mph 3.0 mph 89% 0.00 in
04:59 58.2 °F 55.0 °F 30.15 in NNW 1.0 mph 3.0 mph 89% 0.00 in
05:04 58.2 °F 55.0 °F 30.15 in NNE 3.0 mph 5.0 mph 89% 0.00 in
05:09 58.2 °F 55.0 °F 30.15 in NNE 5.0 mph 6.0 mph 89% 0.00 in
05:14 58.3 °F 55.1 °F 30.15 in NNE 4.0 mph 6.0 mph 89% 0.00 in
05:19 58.2 °F 55.0 °F 30.15 in North 4.0 mph 4.0 mph 89% 0.00 in
05:24 58.2 °F 55.0 °F 30.15 in NNE 2.0 mph 6.0 mph 89% 0.00 in
05:29 58.2 °F 55.0 °F 30.16 in North 3.0 mph 4.0 mph 89% 0.00 in
05:34 58.2 °F 55.0 °F 30.16 in North 3.0 mph 9.0 mph 89% 0.00 in
05:39 58.2 °F 55.0 °F 30.16 in NNW 4.0 mph 5.0 mph 89% 0.00 in
05:44 58.1 °F 54.9 °F 30.16 in North 4.0 mph 7.0 mph 89% 0.00 in
05:49 58.1 °F 54.9 °F 30.16 in North 4.0 mph 6.0 mph 89% 0.00 in
05:54 58.1 °F 54.9 °F 30.16 in NNW 5.0 mph 5.0 mph 89% 0.00 in
05:59 58.1 °F 54.9 °F 30.16 in ENE 4.0 mph 6.0 mph 89% 0.00 in
06:04 58.1 °F 54.6 °F 30.16 in NE 3.0 mph 7.0 mph 88% 0.00 in
06:09 58.1 °F 54.6 °F 30.16 in NE 5.0 mph 6.0 mph 88% 0.00 in
06:14 58.0 °F 54.5 °F 30.16 in NE 6.0 mph 7.0 mph 88% 0.00 in
06:19 58.1 °F 54.6 °F 30.16 in NE 5.0 mph 7.0 mph 88% 0.00 in
06:24 58.0 °F 54.5 °F 30.16 in NNE 1.0 mph 5.0 mph 88% 0.00 in
06:29 57.9 °F 54.4 °F 30.16 in NE 3.0 mph 6.0 mph 88% 0.00 in
06:35 57.8 °F 54.0 °F 30.16 in ENE 4.0 mph 8.0 mph 87% 0.00 in
06:40 57.8 °F 54.0 °F 30.16 in NNE 5.0 mph 7.0 mph 87% 0.00 in
06:45 57.7 °F 53.9 °F 30.16 in NNE 2.0 mph 7.0 mph 87% 0.00 in
06:50 57.7 °F 53.9 °F 30.16 in NE 8.0 mph 8.0 mph 87% 0.00 in
06:55 57.6 °F 53.8 °F 30.16 in NE 9.0 mph 9.0 mph 87% 0.00 in
07:00 57.6 °F 53.8 °F 30.16 in NNE 6.0 mph 10.0 mph 87% 0.00 in
07:05 57.5 °F 53.7 °F 30.16 in NE 5.0 mph 8.0 mph 87% 0.00 in
07:10 57.5 °F 53.7 °F 30.16 in NNE 1.0 mph 12.0 mph 87% 0.00 in
07:15 57.4 °F 53.6 °F 30.17 in ENE 4.0 mph 8.0 mph 87% 0.00 in
07:20 57.4 °F 53.6 °F 30.17 in North 4.0 mph 6.0 mph 87% 0.00 in
07:25 57.4 °F 53.6 °F 30.17 in North 4.0 mph 6.0 mph 87% 0.00 in
07:30 57.4 °F 53.6 °F 30.17 in NE 4.0 mph 6.0 mph 87% 0.00 in
07:35 57.4 °F 53.6 °F 30.17 in NNE 3.0 mph 6.0 mph 87% 0.00 in
07:40 57.4 °F 53.2 °F 30.17 in NNE 3.0 mph 9.0 mph 86% 0.00 in
07:45 57.4 °F 53.2 °F 30.17 in NE 3.0 mph 7.0 mph 86% 0.00 in
07:50 57.4 °F 53.2 °F 30.17 in NE 3.0 mph 7.0 mph 86% 0.00 in
07:55 57.3 °F 53.2 °F 30.17 in NE 2.0 mph 6.0 mph 86% 0.00 in
08:00 57.3 °F 53.2 °F 30.18 in NE 2.0 mph 4.0 mph 86% 0.00 in
08:05 57.3 °F 53.2 °F 30.18 in NE 4.0 mph 5.0 mph 86% 0.00 in
08:10 57.2 °F 53.4 °F 30.18 in NE 2.0 mph 4.0 mph 87% 0.00 in
08:15 57.1 °F 53.6 °F 30.18 in North 2.0 mph 3.0 mph 88% 0.00 in
08:20 56.9 °F 53.7 °F 30.18 in NW 5.0 mph 5.0 mph 89% 0.00 in
08:25 56.7 °F 53.8 °F 30.18 in NNW 3.0 mph 5.0 mph 90% 0.00 in
08:31 56.5 °F 53.6 °F 30.19 in NW 3.0 mph 4.0 mph 90% 0.00 in
08:36 56.4 °F 53.8 °F 30.19 in NW 1.0 mph 3.0 mph 91% 0.00 in
08:41 56.3 °F 53.7 °F 30.19 in North 3.0 mph 4.0 mph 91% 0.00 in
08:46 56.3 °F 54.0 °F 30.19 in NW 1.0 mph 3.0 mph 92% 0.00 in
08:51 56.3 °F 54.0 °F 30.20 in NNW 3.0 mph 5.0 mph 92% 0.00 in
08:56 56.2 °F 53.9 °F 30.19 in North 1.0 mph 3.0 mph 92% 0.00 in
09:01 56.1 °F 53.8 °F 30.19 in NNW 3.0 mph 6.0 mph 92% 0.04 in
09:06 56.1 °F 54.1 °F 30.20 in North 4.0 mph 5.0 mph 93% 0.04 in
09:11 56.0 °F 54.0 °F 30.20 in NW 2.0 mph 5.0 mph 93% 0.04 in
09:16 55.9 °F 53.9 °F 30.19 in North 5.0 mph 5.0 mph 93% 0.00 in
09:21 55.8 °F 53.8 °F 30.20 in NNE 2.0 mph 5.0 mph 93% 0.00 in
09:26 55.8 °F 53.8 °F 30.20 in NE 5.0 mph 5.0 mph 93% 0.00 in
09:31 55.7 °F 53.7 °F 30.20 in NNE 2.0 mph 6.0 mph 93% 0.00 in
09:36 55.6 °F 53.6 °F 30.20 in NNW 2.0 mph 6.0 mph 93% 0.04 in
09:41 55.6 °F 53.6 °F 30.21 in North 4.0 mph 6.0 mph 93% 0.04 in
09:46 55.6 °F 53.6 °F 30.21 in North 1.0 mph 5.0 mph 93% 0.05 in
09:51 55.6 °F 53.6 °F 30.21 in North 2.0 mph 5.0 mph 93% 0.10 in
09:56 55.6 °F 53.6 °F 30.21 in North 5.0 mph 7.0 mph 93% 0.10 in
10:01 55.7 °F 53.7 °F 30.21 in NNE 5.0 mph 6.0 mph 93% 0.06 in
10:06 55.8 °F 53.8 °F 30.22 in North 4.0 mph 6.0 mph 93% 0.06 in
10:11 55.9 °F 53.9 °F 30.22 in NNW 3.0 mph 5.0 mph 93% 0.05 in
10:16 55.9 °F 53.9 °F 30.22 in NNW 3.0 mph 4.0 mph 93% 0.04 in
10:21 56.0 °F 54.0 °F 30.22 in NNE 3.0 mph 8.0 mph 93% 0.00 in
10:26 56.1 °F 54.1 °F 30.22 in North 4.0 mph 6.0 mph 93% 0.00 in
10:31 56.1 °F 54.1 °F 30.22 in North 3.0 mph 5.0 mph 93% 0.00 in
10:36 56.1 °F 54.1 °F 30.23 in NNW 2.0 mph 5.0 mph 93% 0.00 in
10:41 56.1 °F 54.1 °F 30.23 in North 1.0 mph 4.0 mph 93% 0.00 in
10:46 56.0 °F 54.0 °F 30.23 in North 3.0 mph 4.0 mph 93% 0.00 in
10:51 56.0 °F 54.0 °F 30.23 in NNE 4.0 mph 4.0 mph 93% 0.00 in
10:56 56.0 °F 54.0 °F 30.23 in NNE 3.0 mph 5.0 mph 93% 0.00 in
11:01 56.1 °F 54.1 °F 30.23 in North 6.0 mph 6.0 mph 93% 0.00 in
11:06 56.1 °F 54.1 °F 30.23 in NNE 3.0 mph 8.0 mph 93% 0.00 in
11:12 56.1 °F 54.1 °F 30.23 in NNE 4.0 mph 6.0 mph 93% 0.06 in
11:17 56.2 °F 54.2 °F 30.23 in North 7.0 mph 7.0 mph 93% 0.05 in
11:22 56.3 °F 54.3 °F 30.23 in North 4.0 mph 8.0 mph 93% 0.05 in
11:27 56.5 °F 54.5 °F 30.23 in NNE 3.0 mph 4.0 mph 93% 0.05 in
11:32 56.6 °F 54.6 °F 30.23 in North 4.0 mph 8.0 mph 93% 0.04 in
11:37 56.6 °F 54.6 °F 30.23 in NNW 2.0 mph 7.0 mph 93% 0.00 in
11:42 56.7 °F 54.7 °F 30.23 in NNE 2.0 mph 5.0 mph 93% 0.00 in
11:47 56.6 °F 54.6 °F 30.23 in North 6.0 mph 7.0 mph 93% 0.00 in
11:52 56.6 °F 54.6 °F 30.23 in NNW 6.0 mph 7.0 mph 93% 0.00 in
11:57 56.6 °F 54.6 °F 30.23 in NNE 4.0 mph 7.0 mph 93% 0.00 in
12:02 56.6 °F 54.6 °F 30.23 in North 3.0 mph 7.0 mph 93% 0.00 in
12:07 56.5 °F 54.5 °F 30.24 in NW 1.0 mph 7.0 mph 93% 0.00 in
12:12 56.4 °F 54.4 °F 30.24 in NNE 4.0 mph 5.0 mph 93% 0.00 in
12:18 56.4 °F 54.4 °F 30.24 in NNE 3.0 mph 5.0 mph 93% 0.00 in
12:23 56.4 °F 54.4 °F 30.24 in NE 4.0 mph 6.0 mph 93% 0.00 in
12:28 56.3 °F 54.3 °F 30.24 in NNE 4.0 mph 7.0 mph 93% 0.00 in
12:33 56.2 °F 54.2 °F 30.23 in NNE 4.0 mph 7.0 mph 93% 0.00 in
12:38 56.2 °F 54.2 °F 30.23 in NE 4.0 mph 7.0 mph 93% 0.06 in
12:43 56.1 °F 54.1 °F 30.23 in North 3.0 mph 6.0 mph 93% 0.06 in
12:48 56.1 °F 54.1 °F 30.23 in North 3.0 mph 7.0 mph 93% 0.09 in
12:53 56.0 °F 54.0 °F 30.23 in NW 2.0 mph 7.0 mph 93% 0.07 in
12:58 56.0 °F 54.0 °F 30.24 in North 5.0 mph 5.0 mph 93% 0.05 in
13:03 56.0 °F 54.0 °F 30.24 in North 4.0 mph 6.0 mph 93% 0.05 in
13:08 56.1 °F 54.4 °F 30.24 in NE 5.0 mph 5.0 mph 94% 0.06 in
13:13 56.1 °F 54.4 °F 30.24 in North 3.0 mph 4.0 mph 94% 0.06 in
13:18 56.1 °F 54.4 °F 30.24 in North 1.0 mph 5.0 mph 94% 0.06 in
13:23 56.1 °F 54.4 °F 30.24 in North 2.0 mph 4.0 mph 94% 0.05 in
13:28 56.0 °F 54.3 °F 30.24 in North 3.0 mph 6.0 mph 94% 0.05 in
13:33 55.9 °F 54.2 °F 30.24 in NW 5.0 mph 5.0 mph 94% 0.05 in
13:38 56.1 °F 54.4 °F 30.24 in NNW 3.0 mph 5.0 mph 94% 0.05 in
13:43 56.1 °F 54.4 °F 30.24 in NNE 3.0 mph 4.0 mph 94% 0.07 in
13:48 56.0 °F 54.3 °F 30.24 in North 2.0 mph 6.0 mph 94% 0.07 in
13:53 56.2 °F 54.5 °F 30.24 in NNE 3.0 mph 4.0 mph 94% 0.07 in
13:58 56.1 °F 54.4 °F 30.25 in NNE 6.0 mph 8.0 mph 94% 0.07 in
14:03 56.1 °F 54.4 °F 30.25 in NW 4.0 mph 6.0 mph 94% 0.04 in
14:08 56.1 °F 54.4 °F 30.25 in North 5.0 mph 8.0 mph 94% 0.04 in
14:13 56.0 °F 54.3 °F 30.25 in NNW 2.0 mph 7.0 mph 94% 0.04 in
14:18 56.1 °F 54.4 °F 30.25 in NNW 3.0 mph 6.0 mph 94% 0.05 in
14:23 56.1 °F 54.4 °F 30.25 in North 4.0 mph 7.0 mph 94% 0.05 in
14:28 56.0 °F 54.3 °F 30.25 in NNW 6.0 mph 9.0 mph 94% 0.06 in
14:33 56.0 °F 54.3 °F 30.25 in NW 1.0 mph 7.0 mph 94% 0.07 in
14:38 56.0 °F 54.3 °F 30.25 in NNW 3.0 mph 7.0 mph 94% 0.07 in
14:43 56.0 °F 54.3 °F 30.26 in North 3.0 mph 7.0 mph 94% 0.08 in
14:48 56.0 °F 54.3 °F 30.26 in NW 4.0 mph 5.0 mph 94% 0.08 in
14:53 56.0 °F 54.3 °F 30.26 in NW 3.0 mph 7.0 mph 94% 0.06 in
14:58 55.9 °F 54.2 °F 30.26 in North 6.0 mph 8.0 mph 94% 0.08 in
15:04 55.8 °F 54.1 °F 30.26 in NNW 7.0 mph 8.0 mph 94% 0.08 in
15:09 55.8 °F 54.1 °F 30.26 in NNW 8.0 mph 8.0 mph 94% 0.10 in
15:14 55.8 °F 54.1 °F 30.25 in NNE 6.0 mph 7.0 mph 94% 0.11 in
15:19 56.0 °F 54.3 °F 30.25 in North 6.0 mph 6.0 mph 94% 0.07 in
15:24 56.1 °F 54.4 °F 30.26 in NW 4.0 mph 9.0 mph 94% 0.07 in
15:29 56.3 °F 54.6 °F 30.25 in NNW 6.0 mph 9.0 mph 94% 0.06 in
15:34 56.2 °F 54.5 °F 30.25 in NW 4.0 mph 10.0 mph 94% 0.04 in
15:39 56.3 °F 54.6 °F 30.25 in NW 6.0 mph 9.0 mph 94% 0.00 in
15:44 56.3 °F 54.6 °F 30.24 in North 8.0 mph 11.0 mph 94% 0.00 in
15:49 56.3 °F 54.6 °F 30.24 in NNE 3.0 mph 7.0 mph 94% 0.00 in
15:54 56.2 °F 54.5 °F 30.24 in North 8.0 mph 9.0 mph 94% 0.00 in
15:59 56.1 °F 54.1 °F 30.23 in NNW 6.0 mph 16.0 mph 93% 0.00 in
16:04 56.0 °F 54.0 °F 30.23 in NNE 4.0 mph 11.0 mph 93% 0.00 in
16:09 55.8 °F 53.5 °F 30.23 in North 4.0 mph 10.0 mph 92% 0.00 in
16:14 55.8 °F 53.5 °F 30.23 in NNW 8.0 mph 14.0 mph 92% 0.00 in
16:19 55.7 °F 53.1 °F 30.23 in NNW 6.0 mph 12.0 mph 91% 0.00 in
16:24 55.6 °F 53.0 °F 30.23 in NNW 8.0 mph 11.0 mph 91% 0.00 in
16:30 55.5 °F 52.6 °F 30.22 in NNW 8.0 mph 12.0 mph 90% 0.00 in
16:35 55.4 °F 52.5 °F 30.22 in North 9.0 mph 9.0 mph 90% 0.00 in
16:40 55.4 °F 52.5 °F 30.22 in WNW 3.0 mph 8.0 mph 90% 0.00 in
16:45 55.3 °F 52.1 °F 30.22 in NNW 5.0 mph 14.0 mph 89% 0.00 in
16:50 55.4 °F 52.2 °F 30.22 in NE 5.0 mph 11.0 mph 89% 0.00 in
16:55 55.5 °F 52.0 °F 30.21 in NNW 4.0 mph 10.0 mph 88% 0.00 in
17:00 55.5 °F 51.7 °F 30.21 in North 6.0 mph 8.0 mph 87% 0.00 in
17:05 55.3 °F 51.5 °F 30.21 in NNW 3.0 mph 11.0 mph 87% 0.00 in
17:10 55.2 °F 51.4 °F 30.22 in NNE 3.0 mph 6.0 mph 87% 0.00 in
17:15 55.1 °F 51.0 °F 30.22 in NW 5.0 mph 9.0 mph 86% 0.00 in
17:20 55.1 °F 51.0 °F 30.23 in NW 3.0 mph 7.0 mph 86% 0.00 in
17:25 55.0 °F 50.6 °F 30.22 in NNE 4.0 mph 9.0 mph 85% 0.00 in
17:30 55.0 °F 50.9 °F 30.22 in NNE 7.0 mph 8.0 mph 86% 0.00 in
17:35 54.9 °F 51.1 °F 30.21 in NE 11.0 mph 11.0 mph 87% 0.00 in
17:40 54.7 °F 50.9 °F 30.21 in NNW 2.0 mph 7.0 mph 87% 0.00 in
17:46 54.4 °F 50.9 °F 30.21 in North 8.0 mph 12.0 mph 88% 0.00 in
17:51 54.2 °F 51.0 °F 30.21 in North 3.0 mph 13.0 mph 89% 0.00 in
17:56 54.1 °F 50.9 °F 30.20 in North 9.0 mph 9.0 mph 89% 0.00 in
18:02 54.1 °F 50.9 °F 30.20 in NNE 5.0 mph 10.0 mph 89% 0.00 in
18:07 54.1 °F 50.9 °F 30.20 in NNE 8.0 mph 9.0 mph 89% 0.00 in
18:12 54.1 °F 50.9 °F 30.19 in North 5.0 mph 7.0 mph 89% 0.00 in
18:17 54.2 °F 50.7 °F 30.19 in NNE 6.0 mph 6.0 mph 88% 0.00 in
18:22 54.3 °F 50.8 °F 30.18 in NNE 3.0 mph 10.0 mph 88% 0.00 in
18:27 54.4 °F 50.9 °F 30.18 in North 6.0 mph 6.0 mph 88% 0.00 in
18:32 54.5 °F 51.0 °F 30.17 in NNE 3.0 mph 8.0 mph 88% 0.00 in
18:37 54.5 °F 51.0 °F 30.17 in NNE 5.0 mph 8.0 mph 88% 0.00 in
18:42 54.6 °F 50.8 °F 30.16 in NE 7.0 mph 12.0 mph 87% 0.00 in
18:47 54.7 °F 50.9 °F 30.16 in NNE 2.0 mph 13.0 mph 87% 0.00 in
18:52 54.7 °F 50.9 °F 30.16 in NNE 2.0 mph 9.0 mph 87% 0.00 in
18:57 54.7 °F 50.9 °F 30.16 in NNW 5.0 mph 8.0 mph 87% 0.00 in
19:02 54.7 °F 50.9 °F 30.16 in North 4.0 mph 7.0 mph 87% 0.00 in
19:07 54.7 °F 51.2 °F 30.16 in North 5.0 mph 7.0 mph 88% 0.00 in
19:12 54.7 °F 51.2 °F 30.16 in NE 3.0 mph 8.0 mph 88% 0.00 in
19:17 54.7 °F 51.2 °F 30.16 in North 2.0 mph 7.0 mph 88% 0.00 in
19:22 54.7 °F 51.2 °F 30.16 in NNE 6.0 mph 8.0 mph 88% 0.00 in
19:28 54.7 °F 51.2 °F 30.16 in NE 4.0 mph 5.0 mph 88% 0.00 in
19:33 54.7 °F 51.2 °F 30.17 in NE 2.0 mph 5.0 mph 88% 0.00 in
19:38 54.7 °F 51.2 °F 30.16 in NNE 2.0 mph 4.0 mph 88% 0.00 in
19:43 54.7 °F 51.2 °F 30.16 in NNE 2.0 mph 5.0 mph 88% 0.00 in
19:48 54.9 °F 51.1 °F 30.16 in NE 2.0 mph 5.0 mph 87% 0.00 in
19:53 55.0 °F 51.2 °F 30.17 in NNE 1.0 mph 6.0 mph 87% 0.00 in
19:58 54.9 °F 51.1 °F 30.17 in NNE 2.0 mph 4.0 mph 87% 0.00 in
20:04 54.7 °F 51.2 °F 30.17 in NE 2.0 mph 2.0 mph 88% 0.00 in
20:09 54.5 °F 51.3 °F 30.16 in ENE 3.0 mph 4.0 mph 89% 0.00 in
20:14 54.5 °F 51.3 °F 30.16 in ENE 5.0 mph 6.0 mph 89% 0.00 in
20:19 54.4 °F 51.2 °F 30.15 in ENE 2.0 mph 4.0 mph 89% 0.00 in
20:24 54.3 °F 51.1 °F 30.15 in NE 2.0 mph 6.0 mph 89% 0.00 in
20:29 54.3 °F 51.1 °F 30.15 in NE 1.0 mph 4.0 mph 89% 0.00 in
20:34 54.2 °F 51.3 °F 30.15 in NNE 2.0 mph 3.0 mph 90% 0.00 in
20:39 54.0 °F 51.4 °F 30.15 in NW 2.0 mph 2.0 mph 91% 0.00 in
20:45 53.7 °F 51.1 °F 30.15 in NNW 1.0 mph 2.0 mph 91% 0.00 in
20:50 53.5 °F 51.2 °F 30.15 in Calm   2.0 mph 92% 0.00 in
20:55 53.4 °F 51.1 °F 30.15 in North 1.0 mph 1.0 mph 92% 0.00 in
21:00 53.4 °F 51.4 °F 30.15 in Calm   2.0 mph 93% 0.00 in
21:05 53.4 °F 51.4 °F 30.15 in Calm   1.0 mph 93% 0.00 in
21:10 53.4 °F 51.4 °F 30.16 in NNE 1.0 mph 1.0 mph 93% 0.00 in
21:15 53.4 °F 51.4 °F 30.16 in NE 1.0 mph 2.0 mph 93% 0.00 in
21:21 53.4 °F 51.4 °F 30.16 in East 2.0 mph 3.0 mph 93% 0.00 in
21:26 53.5 °F 51.5 °F 30.16 in East 2.0 mph 2.0 mph 93% 0.00 in
21:31 53.5 °F 51.5 °F 30.16 in ESE 1.0 mph 2.0 mph 93% 0.00 in
21:36 53.4 °F 51.4 °F 30.16 in East 2.0 mph 3.0 mph 93% 0.00 in
21:41 53.4 °F 51.4 °F 30.16 in ENE 2.0 mph 2.0 mph 93% 0.00 in
21:46 53.3 °F 51.3 °F 30.16 in NNE 2.0 mph 4.0 mph 93% 0.00 in
21:52 53.3 °F 51.3 °F 30.16 in North 1.0 mph 3.0 mph 93% 0.00 in
21:56 53.2 °F 51.2 °F 30.16 in NE 2.0 mph 4.0 mph 93% 0.00 in
22:02 53.2 °F 51.2 °F 30.15 in NNE 2.0 mph 4.0 mph 93% 0.00 in
22:07 53.1 °F 51.1 °F 30.16 in NNE 3.0 mph 3.0 mph 93% 0.00 in
22:12 53.0 °F 51.3 °F 30.17 in NNE 1.0 mph 2.0 mph 94% 0.00 in
22:17 53.0 °F 51.3 °F 30.17 in NNE 2.0 mph 2.0 mph 94% 0.00 in
22:22 53.0 °F 51.3 °F 30.16 in NE 1.0 mph 3.0 mph 94% 0.00 in
22:27 52.9 °F 51.2 °F 30.16 in NNW 3.0 mph 5.0 mph 94% 0.00 in
22:33 52.8 °F 51.1 °F 30.16 in NW 3.0 mph 5.0 mph 94% 0.00 in
22:38 52.8 °F 51.1 °F 30.17 in NNE 2.0 mph 4.0 mph 94% 0.00 in
22:43 52.8 °F 51.1 °F 30.16 in NNE 2.0 mph 4.0 mph 94% 0.00 in
22:48 52.7 °F 51.0 °F 30.16 in North 5.0 mph 5.0 mph 94% 0.00 in
22:53 52.7 °F 51.0 °F 30.16 in NNW 2.0 mph 5.0 mph 94% 0.00 in
22:56 52.7 °F 51.0 °F 30.16 in North 5.0 mph 5.0 mph 94% 0.00 in
23:01 52.7 °F 51.0 °F 30.16 in NNW 3.0 mph 4.0 mph 94% 0.00 in
23:06 52.6 °F 50.9 °F 30.16 in NW 3.0 mph 6.0 mph 94% 0.00 in
23:11 52.6 °F 50.9 °F 30.17 in NNW 4.0 mph 7.0 mph 94% 0.00 in
23:16 52.6 °F 50.9 °F 30.16 in NW 5.0 mph 6.0 mph 94% 0.00 in
23:21 52.5 °F 51.1 °F 30.16 in NW 4.0 mph 5.0 mph 95% 0.00 in
23:26 52.4 °F 51.0 °F 30.16 in NNW 8.0 mph 8.0 mph 95% 0.00 in
23:31 52.3 °F 50.9 °F 30.16 in NNW 6.0 mph 8.0 mph 95% 0.00 in
23:36 52.2 °F 50.8 °F 30.16 in NW 6.0 mph 8.0 mph 95% 0.00 in
23:42 52.1 °F 50.7 °F 30.16 in NNW 4.0 mph 8.0 mph 95% 0.00 in
23:47 52.1 °F 50.7 °F 30.16 in NNW 2.0 mph 9.0 mph 95% 0.00 in
23:52 52.0 °F 50.6 °F 30.15 in NNW 5.0 mph 11.0 mph 95% 0.00 in
23:53 52.0 °F 50.6 °F 30.15 in North 8.0 mph 11.0 mph 95% 0.00 in
23:58 51.9 °F 50.5 °F 30.15 in NW 7.0 mph 9.0 mph 95% 0.00 in
Compliments of Weather Underground